Regional Weather Roundup
Issued by NWS

Home | Current Version | Previous Version | Text Only | Print | Product List | Glossary Off
Versions: 1 2 3 4 5 6 7 8 9 10 11 12 13 14 15 16 17 18 19 20 21 22 23 24 25 26 27 28 29 30 31 32 33 34 35 36 37 38 39 40 41 42 43 44 45 46 47 48 49 50

000
ASUS43 KMPX 300801
RWRMN
WEATHER ROUNDUP FOR MINNESOTA
NATIONAL WEATHER SERVICE TWIN CITIES/CHANHASSEN MN
300 AM CDT THU MAR 30 2017


NOTE: "FAIR" INDICATES FEW OR NO CLOUDS BELOW 12,000 FEET WITH NO
SIGNIFICANT WEATHER AND/OR OBSTRUCTIONS TO VISIBILITY. N/A MEANS
CURRENT SKY AND/OR WEATHER CONDITIONS ARE NOT AVAILABLE.

MNZ060>063-068>070-300900-
   Twin Cities Metro

CITY           SKY/WX    TMP DP  RH WIND       PRES   REMARKS
TWIN CITIES    CLOUDY    40  36  86 NE10      30.01F
ST PAUL        CLOUDY    40  38  93 E8        30.02F
CRYSTAL        CLOUDY    40  35  83 NE8       30.01F
BLAINE         DRIZZLE   41  39  93 NE8       30.02F
LAKEVILLE      CLOUDY    37  37 100 E12G17    29.99F
EDEN PRAIRIE   CLOUDY    41  36  82 E13       29.99F
SOUTH ST PAUL  CLOUDY    40  38  93 NE5       30.01F
LAKE ELMO      CLOUDY    39  37  93 NE7       30.02F
$$
MNZ001>005-007-008-013>017-022>024-027-028-300900-
   Northwest Minnesota

CITY           SKY/WX    TMP DP  RH WIND       PRES   REMARKS
BEMIDJI        CLEAR     31  29  93 SE5       30.04F WCI  26
HALLOCK        CLOUDY    43  39  87 S13       29.97S
ROSEAU         CLOUDY    39  36  87 S12       29.99S
WARROAD        MOCLDY    41  34  75 S6        30.01R
THIEF RVR FALL CLEAR     38  35  89 S12       30.02F
CROOKSTON      CLEAR     37  36  93 S10       30.01F
FOSSTON        CLEAR     34  32  93 S7        30.03S WCI  28
DETROIT LAKES  CLEAR     34  34 100 SE5       30.03F WCI  30
MOORHEAD       CLEAR     36  34  93 S9        30.03F
PARK RAPIDS    CLEAR     34  28  79 E6        30.03F WCI  29
MAHNOMEN       FAIR      34  32  94 S7        30.02F WCI  28
$$
MNZ006-009>011-018-025>026-300900-
   North Central Minnesota

CITY           SKY/WX    TMP DP  RH WIND       PRES   REMARKS
BAUDETTE       CLOUDY    36  30  79 S6        30.02S
FLAG ISLAND    CLOUDY    36  30  80 S13       30.00S
INTL FALLS     CLEAR     29  24  82 SE7       30.06S WCI  22
WASKISH        PTCLDY    36  30  80 S7        30.03F
BIG FORK       CLEAR     30  27  86 CALM      30.07F
LONGVILLE      CLEAR     28  27  93 CALM      30.06F
GRAND RAPIDS   CLEAR     27  26  96 CALM      30.09F
CRANE LAKE     CLEAR     27  23  86 CALM      30.11F
ORR            CLEAR     28  21  74 CALM      30.06F
COOK           CLEAR     27  25  93 CALM      30.08F
WALKER         FAIR      31  29  93 E3        30.05F
$$
MNZ012-019>021-037-300900-
   Northeast Minnesota

CITY           SKY/WX    TMP DP  RH WIND       PRES   REMARKS
DULUTH         CLOUDY    30  28  92 E8        30.08F WCI  22
ELY            CLOUDY    27  23  86 CALM      30.09F
HIBBING        CLOUDY    24  23  96 CALM      30.08F
EVELETH        CLOUDY    26  23  87 NE5       30.09F WCI  21
DULUTH HARBOR  CLOUDY    36  32  87 NE16      30.13F
TWO HARBORS    CLOUDY    34  28  80 NE5       30.08F WCI  30
GRAND MARAIS     N/A     33  26  75 NE10      30.16F WCI  25
G MARAIS ARPRT CLOUDY    27  19  74 NE7       30.12F WCI  19
$$
MNZ029>031-032-039>041-046>048-054>057-064-300900-
   West Central Minnesota

CITY           SKY/WX    TMP DP  RH WIND       PRES   REMARKS
FERGUS FALLS   CLEAR     37  37 100 SE5       30.07F
WHEATON        CLOUDY    37  36  93 CALM      30.04F
MORRIS         CLOUDY    39  37  93 NE6       30.02F
ALEXANDRIA     CLOUDY    39  38  96 E3        30.04F
ELBOW LAKE     CLOUDY    37  36  98 CALM      30.03F
WADENA         MOCLDY    32  32 100 E5        30.05R WCI  27
GLENWOOD       DRIZZLE   37  36  93 NE6       30.03F
APPLETON       CLOUDY    39  37  93 CALM      30.01F
BENSON         CLOUDY    43  36  75 E3        30.03F
MADISON        CLOUDY    43  39  87 NE5       30.01F
WILLMAR        CLOUDY    43  37  81 E10       30.01F
$$
MNZ033>034-036-042>043-049>051-058-059-300900-
   Central Minnesota

CITY           SKY/WX    TMP DP  RH WIND       PRES   REMARKS
ST CLOUD       CLOUDY    37  33  85 NE6       30.03F
SAUK CENTRE    CLOUDY    38  37  95 NE5       30.04F
PAYNESVILLE    CLOUDY    40  40 100 E9        30.02F
AITKIN         CLOUDY    30  27  86 E3        30.05F
PINE RIVER     CLEAR     28  28 100 CALM      30.09F
BRAINERD       CLOUDY    29  27  92 CALM      30.06F
STAPLES        CLOUDY    34  30  86 CALM      30.05S
LONG PRAIRIE   CLOUDY    36  34  93 NE5       30.05S
LITTLE FALLS   CLOUDY    34  30  86 CALM      30.05F
LITCHFIELD     CLOUDY    41  37  87 E10       30.01F
BUFFALO        CLOUDY    40  36  86 NE9G16    30.03F
MAPLE LAKE     DRIZZLE   40  38  91 E12       30.03F
HUTCHINSON     DRIZZLE   40  39  95 NE12      30.01S
$$
MNZ037-044-045-052-053-300900-
   East Central Minnesota

CITY           SKY/WX    TMP DP  RH WIND       PRES   REMARKS
PRINCETON      CLOUDY    37  34  87 NE5       30.04F
MORA           MOCLDY    32  28  86 NE3       30.07F
CAMBRIDGE      CLOUDY    39  30  70 NE3       30.03F
RUSH CITY      CLOUDY    35  31  85 NE6       30.06F WCI  30
MOOSE LAKE     CLOUDY    32  30  93 NE3       30.07F
CLOQUET        CLOUDY    30  28  93 E8        30.08F WCI  23
$$
MNZ071>073-080-081-089-090-097-098-300900-
   Southwest Minnesota

CITY           SKY/WX    TMP DP  RH WIND       PRES   REMARKS
MONTEVIDEO     CLOUDY    39  37  93 E7        30.01S
GRANITE FALLS  CLOUDY    42  39  88 NE9       30.01S
CANBY          CLOUDY    41  39  93 CALM      30.00F
MARSHALL       CLOUDY    39  37  92 E10       29.98F
REDWOOD FALLS  CLOUDY    40  37  89 E9        29.98F
OLIVIA         CLOUDY    39  36  87 E8        29.99S
PIPESTONE      CLOUDY    37  34  87 E9        29.92F
WINDOM         MOCLDY    37  37 100 NE14G21   29.93S
WORTHINGTON    MIX PCPN N/A N/A N/A NE14      29.91F
JACKSON        DRIZZLE   36  36 100 E15       29.91S
TRACY          CLOUDY    39  38  98 E10       29.96F
SLAYTON        CLOUDY    36  36  97 NE14      29.94S FOG
$$
MNZ065>067-074>077-082>085-091>093-300900-
   South Central Minnesota

CITY           SKY/WX    TMP DP  RH WIND       PRES   REMARKS
MANKATO        CLOUDY    39  36  89 E13G21    29.96F
NEW ULM        CLOUDY    39  36  87 NE12      29.96F
ST JAMES       CLOUDY    39  37  93 NE13      29.95S
FAIRMONT       LGT RAIN  38  35  89 E16       29.92F
GLENCOE        DRIZZLE   40  40 100 NE7       29.99F
FARIBAULT      CLOUDY    37  37 100 NE16      29.97F
OWATONNA       CLOUDY    37  36  93 NE12      29.96S
WASECA         CLOUDY    37  34  87 NE17      29.95F
ALBERT LEA     CLOUDY    36  36 100 E20G25    29.91F
$$
MNZ078>079-086>088-094>096-300900-
   Southeast Minnesota

CITY           SKY/WX    TMP DP  RH WIND       PRES   REMARKS
ROCHESTER      CLOUDY    36  34  92 E18G28    29.94F
RED WING       CLOUDY    39  36  87 E7        29.99F
STANTON        CLOUDY    40  36  87 E12G18    29.97F
DODGE CENTER   DRIZZLE   36  36 100 NE20      29.94F
WINONA         CLOUDY    36  34  93 E8        29.99F
AUSTIN         RAIN      37  34  87 E16       29.90F
PRESTON        CLOUDY    36  33  90 E16G23    29.93S
$$
ABBREVIATIONS USED IN REMARKS
   TC - TEMPERATURES IN CELSIUS
  WCI - WIND CHILL INDEX
   HX - HEAT INDEX
  VSB - VISIBILITY
$$



USA.gov is the U.S. government's official web portal to all federal, state and local government web resources and services.